Tracking 18856 objects as of 12-Dec-2017
HD Live streaming from Space Station
objects crossing your sky now

BREEZE-M DEB

Track BREEZE-M DEB now!
10-day predictions


NORAD ID: 34250
Int'l Code: 2006-006BR
Perigee: 525.8 km
Apogee: 14,708.5 km
Inclination: 51.7 °
Period: 274.4 minutes
Semi major axis: 13988 km
RCS: 0.0694 m2 (small)
Launch date: February 28, 2006
Source: Commonwealth of Independent States (former USSR) (CIS)
Launch site: TYURATAM MISSILE AND SPACE COMPLEX (TTMTR)

Note: This is SATELLITE DEBRIS
aabbcc
Your satellite tracking list
Your tracking list is empty




NASA's NSSDC Master Catalog

Two Line Element Set (TLE):
1 34250U 06006BR  17343.20099356  .00000137  00000-0  42942-3 0  9993
2 34250  51.6964 274.7228 5069537 128.7288 288.7017  5.24760760191304
Source of the keplerian elements: AFSPC